This is the latest recevied weather packets stored in our database for station/object DM1RG-6. If no packets are shown the sender has not sent any weather packets the latest 1 day(s).
| Time | Temp. | Humidity | Pressure | Rain* | Wind** | Luminosity | Snow |
|---|---|---|---|---|---|---|---|
| 1777981323 | 16.11° C | 91% | 1008.6 hPa | 0 mm | 0.45 m/s, 90° | - | - |
| 1777980963 | 16.11° C | 92% | 1008.5 hPa | 0 mm | 0.45 m/s, 90° | - | - |
| 1777980603 | 16.11° C | 92% | 1008.4 hPa | 0 mm | 0 m/s | - | - |
| 1777980243 | 16.11° C | 92% | 1008.5 hPa | 0 mm | 0 m/s | - | - |
| 1777979884 | 15.56° C | 92% | 1008.7 hPa | 0 mm | 0 m/s | - | - |
| 1777979523 | 15.56° C | 92% | 1008.8 hPa | 0 mm | 0 m/s | - | - |
| 1777979163 | 15.56° C | 92% | 1008.7 hPa | 0 mm | 0 m/s | - | - |
| 1777978804 | 15.56° C | 91% | 1008.8 hPa | 0 mm | 0.45 m/s, 68° | - | - |
| 1777978443 | 15.56° C | 91% | 1008.5 hPa | 0 mm | 0.89 m/s, 102° | - | - |
| 1777978083 | 15.56° C | 91% | 1008.6 hPa | 0 mm | 0.89 m/s, 142° | - | - |
| 1777977723 | 15.56° C | 91% | 1008.9 hPa | 0 mm | 0.89 m/s, 141° | - | - |
| 1777977363 | 15.56° C | 91% | 1008.6 hPa | 0 mm | 0.89 m/s, 112° | - | - |
| 1777977004 | 15.56° C | 90% | 1008.6 hPa | 0 mm | 0.45 m/s, 95° | - | - |
| 1777976644 | 15.56° C | 90% | 1008.6 hPa | 0 mm | 0.45 m/s, 76° | - | - |
| 1777976283 | 16.11° C | 90% | 1008.6 hPa | 0 mm | 0.45 m/s, 80° | - | - |
| 1777975923 | 16.11° C | 91% | 1008.6 hPa | 0 mm | 0.89 m/s, 61° | - | - |
| 1777975564 | 15.56° C | 90% | 1008.4 hPa | 0 mm | 0.45 m/s, 74° | - | - |
| 1777975203 | 15.56° C | 91% | 1008.6 hPa | 0 mm | 0.45 m/s, 113° | - | - |
| 1777974844 | 15.56° C | 92% | 1008.8 hPa | 0 mm | 0.89 m/s, 124° | - | - |
| 1777974483 | 15.56° C | 91% | 1008.8 hPa | 0 mm | 0.89 m/s, 125° | - | - |
| 1777974123 | 15.56° C | 90% | 1008.7 hPa | 0 mm | 0.89 m/s, 125° | - | - |
| 1777973763 | 15.56° C | 90% | 1009 hPa | 0 mm | 0.89 m/s, 123° | - | - |
| 1777973404 | 15.56° C | 89% | 1008.7 hPa | 0 mm | 0.89 m/s, 68° | - | - |
| 1777973046 | 15.56° C | 89% | 1008.5 hPa | 0 mm | 0.45 m/s, 69° | - | - |
| 1777972683 | 15.56° C | 88% | 1008.8 hPa | 0 mm | 0.45 m/s, 74° | - | - |
* Rain latest hour (hover to see other rain measurements)
** Current wind speed in m/s (hover to see current wind gust speed)